User: anonymous   Login
Location: Fauquembergues
(50.6005°N, 2.0987°E)
Time: 19:46:30
(UTC+00:00)
Language:

Meteor 1-19 Rocket - Orbit

View from above orbital plane
View from above orbital plane
View from above satellite
View from above satellite

Ground track
Ground track

The orbit data is extracted from the following two-line orbital elements,

1 07493U 74083B   21136.61305967 -.00000113  00000-0 -71988-4 0  9999
2 07493  81.1613 202.4146 0083181  42.3543 318.4007 14.07584772389576
Epoch (UTC): 16 May 2021 14:42:48
Eccentricity: 0.0083181
inclination: 81.1613°
perigee height: 807 km
apogee height: 928 km
right ascension of ascending node: 202.4146°
argument of perigee: 42.3543°
revolutions per day: 14.07584772
mean anomaly at epoch: 318.4007°
orbit number at epoch: 38957

The dashed part of the orbit path shows where the satellite is in the earth's shadow,  

DLR